Weather History for KHCO - October, 2013

Change the Weather History Date:

Sunday, October 6, 2013

  Actual Average Record
Temperature  
Mean Temperature 49 °F -  
Max Temperature 66 °F 56 °F 84 °F (1961)
Min Temperature 32 °F 33 °F 18 °F (1976)
Degree Days  
Heating Degree Days 16    
Moisture  
Dew Point 37 °F    
Average Humidity 70    
Maximum Humidity 93    
Minimum Humidity 35    
Precipitation  
Precipitation 0.00 in - - ()
Sea Level Pressure  
Sea Level Pressure 29.86 in    
Wind  
Wind Speed 6 mph (NW)    
Max Wind Speed 15 mph    
Max Gust Speed -    
Visibility 10 miles    
Events      
Averages and records for this station are not official NWS values.
T = Trace of Precipitation, MM = Missing Value Source: NWS Daily Summary

Daily Weather History Graph

Daily Weather History Graph

Search for Another Location

Airport or City:

Trip Planner

Search our weather history database for the weather conditions in past years. The results will help you decide how hot, cold, wet, or windy it might be!

Date:

Astronomy

Oct. 06, 2013 Rise Set
Actual Time 7:35 AM CDT 6:55 PM CDT
Civil Twilight 7:03 AM CDT 7:27 PM CDT
Nautical Twilight 6:27 AM CDT 8:03 PM CDT
Astronomical Twilight 5:50 AM CDT 8:40 PM CDT
Moon 9:32 AM CDT (10/6) 7:42 PM CDT (10/6)
Length of Visible Light 12h 23m
Length of Day
11h 20m
Waxing Crescent, 3% of the Moon is Illuminated
Oct 6
Waxing Crescent
Oct 11
First Quarter
Oct 18
Full
Oct 26
Last Quarter
Nov 3
New

Hourly Weather History & Observations

Time (CDT) Temp. Windchill Dew Point Humidity Pressure Visibility Wind Dir Wind Speed Gust Speed Precip Events Conditions
12:13 AM 44.6 °F 40.7 °F 39.2 °F 81% 29.96 in 10.0 mi NNE 6.9 mph - N/A   Overcast
12:34 AM 44.6 °F 41.4 °F 39.2 °F 81% 29.95 in 10.0 mi NNE 5.8 mph - N/A   Overcast
12:53 AM 44.6 °F 41.4 °F 39.2 °F 81% 29.96 in 10.0 mi NNE 5.8 mph - N/A   Overcast
1:13 AM 44.6 °F 41.4 °F 39.2 °F 81% 29.94 in 10.0 mi NNE 5.8 mph - N/A   Overcast
1:34 AM 42.8 °F 38.6 °F 39.2 °F 87% 29.93 in 10.0 mi NNW 6.9 mph - N/A   Overcast
1:53 AM 42.8 °F 37.5 °F 39.2 °F 87% 29.92 in 10.0 mi NNW 9.2 mph - N/A   Scattered Clouds
2:13 AM 41.0 °F 36.4 °F 37.4 °F 87% 29.93 in 10.0 mi North 6.9 mph - N/A   Clear
2:34 AM 42.8 °F 37.5 °F 37.4 °F 81% 29.93 in 10.0 mi North 9.2 mph - N/A   Mostly Cloudy
2:53 AM 42.8 °F 38.6 °F 37.4 °F 81% 29.93 in 10.0 mi North 6.9 mph - N/A   Overcast
3:13 AM 42.8 °F 37.5 °F 37.4 °F 81% 29.91 in 10.0 mi North 9.2 mph - N/A   Overcast
3:33 AM 41.0 °F 34.7 °F 37.4 °F 87% 29.92 in 10.0 mi NNW 10.4 mph - N/A   Overcast
3:53 AM 39.2 °F 30.8 °F 35.6 °F 87% 29.90 in 10.0 mi NNW 15.0 mph - N/A   Overcast
4:13 AM 37.4 °F 29.8 °F 35.6 °F 93% 29.89 in 10.0 mi NNW 11.5 mph - N/A   Scattered Clouds
4:33 AM 37.4 °F 29.8 °F 33.8 °F 87% 29.89 in 10.0 mi NNW 11.5 mph - N/A   Clear
4:53 AM 35.6 °F 27.5 °F 33.8 °F 93% 29.88 in 10.0 mi NNW 11.5 mph - N/A   Clear
5:13 AM 35.6 °F 27.1 °F 33.8 °F 93% 29.88 in 10.0 mi NNW 12.7 mph - N/A   Clear
5:33 AM 35.6 °F 27.5 °F 32.0 °F 87% 29.88 in 10.0 mi NNW 11.5 mph - N/A   Clear
5:53 AM 35.6 °F 27.5 °F 32.0 °F 87% 29.89 in 10.0 mi NNW 11.5 mph - N/A   Clear
6:13 AM 33.8 °F 26.4 °F 30.2 °F 87% 29.90 in 10.0 mi NNW 9.2 mph - N/A   Clear
6:33 AM 33.8 °F 28.6 °F 30.2 °F 87% 29.90 in 10.0 mi North 5.8 mph - N/A   Clear
6:53 AM 32.0 °F - 30.2 °F 93% 29.90 in 10.0 mi Calm Calm - N/A   Clear
7:13 AM 33.8 °F 30.8 °F 30.2 °F 87% 29.91 in 10.0 mi North 3.5 mph - N/A   Clear
7:33 AM 33.8 °F 29.6 °F 30.2 °F 87% 29.91 in 10.0 mi NW 4.6 mph - N/A   Clear
7:53 AM 32.0 °F - 30.2 °F 93% 29.91 in 10.0 mi Calm Calm - N/A   Clear
8:13 AM 32.0 °F - 30.2 °F 93% 29.91 in 10.0 mi Calm Calm - N/A   Clear
8:33 AM 33.8 °F 29.6 °F 30.2 °F 87% 29.92 in 10.0 mi NW 4.6 mph - N/A   Clear
8:53 AM 35.6 °F - 32.0 °F 87% 29.91 in 10.0 mi Calm Calm - N/A   Clear
9:13 AM 37.4 °F - 33.8 °F 87% 29.91 in 10.0 mi Calm Calm - N/A   Clear
9:33 AM 39.2 °F - 33.8 °F 81% 29.91 in 10.0 mi Calm Calm - N/A   Clear
9:53 AM 39.2 °F - 33.8 °F 81% 29.90 in 10.0 mi Calm Calm - N/A   Clear
10:14 AM 41.0 °F - 33.8 °F 76% 29.91 in 10.0 mi Calm Calm - N/A   Clear
10:33 AM 42.8 °F - 33.8 °F 70% 29.91 in 10.0 mi Calm Calm - N/A   Clear
10:53 AM 44.6 °F - 35.6 °F 71% 29.91 in 10.0 mi Calm Calm - N/A   Clear
11:13 AM 46.4 °F 45.2 °F 35.6 °F 66% 29.90 in 10.0 mi WSW 3.5 mph - N/A   Clear
11:33 AM 46.4 °F - 35.6 °F 66% 29.90 in 10.0 mi Calm Calm - N/A   Clear
11:53 AM 48.2 °F - 35.6 °F 62% 29.89 in 10.0 mi WNW 5.8 mph - N/A   Clear
12:13 PM 48.2 °F - 35.6 °F 62% 29.89 in 10.0 mi Calm Calm - N/A   Clear
12:33 PM 51.8 °F - 35.6 °F 54% 29.88 in 10.0 mi West 3.5 mph - N/A   Clear
12:53 PM 51.8 °F - 35.6 °F 54% 29.88 in 10.0 mi West 5.8 mph - N/A   Clear
1:13 PM 53.6 °F - 37.4 °F 54% 29.87 in 10.0 mi WSW 5.8 mph - N/A   Clear
1:33 PM 53.6 °F - 37.4 °F 54% 29.86 in 10.0 mi WSW 4.6 mph - N/A   Clear
1:53 PM 55.4 °F - 37.4 °F 51% 29.85 in 10.0 mi West 6.9 mph - N/A   Clear
2:13 PM 55.4 °F - 37.4 °F 51% 29.84 in 10.0 mi WSW 6.9 mph - N/A   Clear
2:33 PM 57.2 °F - 39.2 °F 51% 29.83 in 10.0 mi WSW 5.8 mph - N/A   Clear
2:53 PM 59.0 °F - 39.2 °F 48% 29.82 in 10.0 mi SW 4.6 mph - N/A   Clear
3:13 PM 59.0 °F - 39.2 °F 48% 29.82 in 10.0 mi WSW 6.9 mph - N/A   Clear
3:33 PM 60.8 °F - 39.2 °F 45% 29.81 in 10.0 mi SW 6.9 mph - N/A   Clear
3:53 PM 62.6 °F - 41.0 °F 45% 29.80 in 10.0 mi SSW 4.6 mph - N/A   Clear
4:13 PM 62.6 °F - 42.8 °F 48% 29.80 in 10.0 mi SW 9.2 mph - N/A   Clear
4:34 PM 62.6 °F - 42.8 °F 48% 29.78 in 10.0 mi SSW 9.2 mph - N/A   Clear
4:53 PM 62.6 °F - 42.8 °F 48% 29.78 in 10.0 mi SSW 8.1 mph - N/A   Clear
5:13 PM 62.6 °F - 44.6 °F 52% 29.78 in 10.0 mi SW 9.2 mph - N/A   Clear
5:33 PM 64.4 °F - 42.8 °F 45% 29.78 in 10.0 mi NW 6.9 mph - N/A   Clear
5:53 PM 66.2 °F - 37.4 °F 35% 29.78 in 10.0 mi NW 11.5 mph - N/A   Clear
6:13 PM 64.4 °F - 39.2 °F 40% 29.78 in 10.0 mi NW 10.4 mph - N/A   Clear
6:33 PM 62.6 °F - 39.2 °F 42% 29.79 in 10.0 mi NW 6.9 mph - N/A   Clear
6:53 PM 59.0 °F - 39.2 °F 48% 29.79 in 10.0 mi NW 5.8 mph - N/A   Clear
7:13 PM 57.2 °F - 39.2 °F 51% 29.80 in 10.0 mi NNW 8.1 mph - N/A   Clear
7:33 PM 57.2 °F - 39.2 °F 51% 29.80 in 10.0 mi North 8.1 mph - N/A   Clear
7:53 PM 55.4 °F - 39.2 °F 54% 29.80 in 10.0 mi North 6.9 mph - N/A   Clear
8:13 PM 53.6 °F - 37.4 °F 54% 29.80 in 10.0 mi North 6.9 mph - N/A   Clear
8:33 PM 51.8 °F - 37.4 °F 58% 29.80 in 10.0 mi North 5.8 mph - N/A   Clear
8:53 PM 50.0 °F - 37.4 °F 62% 29.81 in 10.0 mi North 4.6 mph - N/A   Clear
9:13 PM 48.2 °F - 37.4 °F 66% 29.81 in 10.0 mi North 4.6 mph - N/A   Clear
9:33 PM 46.4 °F - 37.4 °F 71% 29.81 in 10.0 mi Calm Calm - N/A   Clear
9:53 PM 44.6 °F 42.2 °F 37.4 °F 76% 29.82 in 10.0 mi WNW 4.6 mph - N/A   Clear
10:13 PM 42.8 °F - 37.4 °F 81% 29.82 in 10.0 mi Calm Calm - N/A   Clear
10:33 PM 42.8 °F - 37.4 °F 81% 29.83 in 10.0 mi Calm Calm - N/A   Clear
10:53 PM 41.0 °F - 35.6 °F 81% 29.83 in 10.0 mi Calm Calm - N/A   Clear
11:13 PM 41.0 °F 39.0 °F 35.6 °F 81% 29.83 in 10.0 mi WNW 3.5 mph - N/A   Clear
11:33 PM 39.2 °F 35.9 °F 35.6 °F 87% 29.84 in 10.0 mi West 4.6 mph - N/A   Clear
11:53 PM 41.0 °F - 35.6 °F 81% 29.84 in 10.0 mi Calm Calm - N/A   Clear